Find OneWeb SL0368

NORAD ID: 49294 Int'l Des: 2021-090 Owner: ONEWEBN Country: UK Constellation: oneweb operational
LEOCIRCULARPOLARONEWEB_TYPE

リアルタイム位置

3D地球を読み込み中...

OneWeb SL0368について

説明を読み込み中...

次回通過

Passes for default location (London). Set your location on the main map for personalized predictions.

高度履歴

Loading altitude history...

軌道要素

1 49294U 21090R 26126.39423338 -.00000076 00000-0 -21883-3 0 9992
2 49294 87.9141 282.7922 0002491 88.6710 271.4708 13.20769045225463
Epoch: May 6, 2026 • Age: 15 hours

現在のステータス

高度 1187.6 km
速度 7.26 km/s
衛星直下点 46.39°N, 134.61°W
打ち上げ日 Oct 14, 2021
運用期間 4.5 years
タイプ internet

技術仕様

分類 Payload
質量 148.00 kg
乾燥質量 140.00 kg
総質量 148.00 kg
長さ 1.30 m
直径 1.00 m
スパン 5.00 m
形状 Trapezoid+2 pan
製造者 ONEWUS
バスタイプ ARROW
フェーズステータス In Orbit
所有者/国 ONEWEBN/UK

Most Searched